This is the latest recevied weather packets stored in our database for station/object DL9GRB-13. If no packets are shown the sender has not sent any weather packets the latest 10 day(s).
| Time | Temp. | Humidity | Pressure | Rain* | Wind** | Luminosity | Snow |
|---|---|---|---|---|---|---|---|
| 1777979048 | 10.56° C | 85% | 1010.5 hPa | 0 mm | - | 234 W/m² | - |
| 1777978688 | 10.56° C | 86% | 1010.4 hPa | 0 mm | - | 244 W/m² | - |
| 1777978508 | 10.56° C | 87% | 1010.4 hPa | 0 mm | - | 176 W/m² | - |
| 1777978148 | 10.56° C | 88% | 1010.5 hPa | 0 mm | - | 225 W/m² | - |
| 1777977428 | 10° C | 89% | 1010.5 hPa | 0 mm | - | 159 W/m² | - |
| 1777977248 | 10° C | 89% | 1010.4 hPa | 0 mm | - | 138 W/m² | - |
| 1777976888 | 10° C | 89% | 1010.6 hPa | 0 mm | - | 120 W/m² | - |
| 1777976708 | 10° C | 89% | 1010.5 hPa | 0 mm | - | 106 W/m² | - |
| 1777976528 | 10° C | 89% | 1010.6 hPa | 0 mm | - | 95 W/m² | - |
| 1777976348 | 10° C | 89% | 1010.5 hPa | 0 mm | - | 94 W/m² | - |
| 1777976168 | 10° C | 89% | 1010.5 hPa | 0 mm | - | 92 W/m² | - |
| 1777975988 | 10° C | 89% | 1010.6 hPa | 0 mm | - | 102 W/m² | - |
| 1777975808 | 10° C | 90% | 1010.4 hPa | 0 mm | - | 104 W/m² | - |
| 1777975628 | 10° C | 90% | 1010.5 hPa | 0 mm | - | 125 W/m² | - |
| 1777975448 | 10° C | 89% | 1010.7 hPa | 0 mm | - | 127 W/m² | - |
| 1777975268 | 10° C | 89% | 1010.4 hPa | 0 mm | - | 124 W/m² | - |
| 1777975088 | 10° C | 89% | 1010.5 hPa | 0 mm | - | 119 W/m² | - |
| 1777974908 | 10° C | 90% | 1010.8 hPa | 0 mm | - | 128 W/m² | - |
| 1777974728 | 10° C | 90% | 1010.5 hPa | 0 mm | - | 139 W/m² | - |
| 1777974548 | 10° C | 90% | 1010.8 hPa | 0 mm | - | 120 W/m² | - |
| 1777974368 | 10° C | 89% | 1010.4 hPa | 0 mm | - | 127 W/m² | - |
| 1777974008 | 10° C | 90% | 1010.5 hPa | 0 mm | - | 135 W/m² | - |
| 1777973828 | 9.44° C | 90% | 1010.4 hPa | 0 mm | - | 133 W/m² | - |
| 1777973648 | 10° C | 90% | 1010.5 hPa | 0 mm | - | 133 W/m² | - |
| 1777973468 | 10° C | 90% | 1010.4 hPa | 0 mm | - | 94 W/m² | - |
* Rain latest hour (hover to see other rain measurements)
** Current wind speed in m/s (hover to see current wind gust speed)